Location: Ponte Samoggia
(44.5667°N, 11.1333°E)
Time: 22:05:30
(UTC+00:00)

Cosmos 2219 Rocket - Pass Details

Date: 26 May 2022
Orbit: 827 x 847 km, 71.0° (Epoch: 29 June)

Event Time Altitude Azimuth Distance (km) Brightness Sun altitude
Exits shadow 00:43:14 10° 269° (W) 2,412 4.3 -21.1°
Maximum altitude 00:47:05 19° 314° (NW) 1,871 4.2 -20.9°
Drops below altitude 10° 00:51:01 10° 359° (N) 2,444 5.5 -20.6°
Sets 00:54:13 0° 17° (NNE) 3,385 6.9 -20.3°
